Location: Darmstadt
(49.8706°N, 8.6494°E)
Time: 07:29:38
(UTC+01:00)

COSMOS 2455 - Pass Details

Date: 31 October 2020
Orbit: 899 x 911 km, 67.1° (Epoch: 03 December)

Event Time Altitude Azimuth Distance (km) Brightness Sun altitude
Rises 19:19:25 0° 321° (NW) 3,551 6.6 -22.3°
Reaches altitude 10° 19:22:30 10° 335° (NNW) 2,608 5.6 -22.8°
Maximum altitude 19:27:17 24° 28° (NNE) 1,818 4.2 -23.6°
Enters shadow 19:27:32 24° 32° (NNE) 1,820 4.2 -23.6°
